This is the latest recevied weather packets stored in our database for station/object I8ZSE-10. If no packets are shown the sender has not sent any weather packets the latest 1 day(s).
| Time | Temp. | Humidity | Pressure | Rain* | Wind** | Luminosity | Snow |
|---|---|---|---|---|---|---|---|
| 1777992008 | 16.67° C | 55% | 1017.9 hPa | 0 mm | 1.79 m/s, 210° | - | - |
| 1777991408 | 17.22° C | 53% | 1018 hPa | 0 mm | 1.79 m/s, 227° | - | - |
| 1777990808 | 17.22° C | 51% | 1018.1 hPa | 0 mm | 1.79 m/s, 217° | - | - |
| 1777990208 | 17.22° C | 51% | 1018.2 hPa | 0 mm | 1.79 m/s, 213° | - | - |
| 1777989609 | 17.78° C | 50% | 1018.3 hPa | 0 mm | 1.34 m/s, 262° | - | - |
| 1777989010 | 17.78° C | 49% | 1018.4 hPa | 0 mm | 1.79 m/s, 248° | - | - |
| 1777988408 | 17.78° C | 49% | 1018.5 hPa | 0 mm | 2.24 m/s, 258° | - | - |
| 1777987808 | 18.33° C | 48% | 1018.6 hPa | 0 mm | 1.79 m/s, 268° | - | - |
| 1777987208 | 18.33° C | 47% | 1018.7 hPa | 0 mm | 2.24 m/s, 273° | - | - |
| 1777986608 | 18.33° C | 47% | 1018.6 hPa | 0 mm | 2.24 m/s, 227° | - | - |
| 1777986008 | 17.78° C | 47% | 1018.6 hPa | 0 mm | 2.24 m/s, 233° | - | - |
| 1777985408 | 18.33° C | 47% | 1018.7 hPa | 0 mm | 2.24 m/s, 272° | - | - |
| 1777984808 | 18.33° C | 46% | 1018.8 hPa | 0 mm | 1.79 m/s, 220° | - | - |
| 1777983608 | 18.33° C | 44% | 1018.9 hPa | 0 mm | 2.68 m/s, 272° | - | - |
| 1777983015 | 18.33° C | 44% | 1018.9 hPa | 0 mm | 3.13 m/s, 267° | - | - |
| 1777982408 | 18.33° C | 43% | 1018.8 hPa | 0 mm | 3.13 m/s, 219° | - | - |
| 1777981808 | 18.33° C | 43% | 1018.7 hPa | 0 mm | 3.13 m/s, 249° | - | - |
| 1777981208 | 18.33° C | 43% | 1018.7 hPa | 0 mm | 2.24 m/s, 214° | - | - |
| 1777980608 | 18.33° C | 42% | 1018.7 hPa | 0 mm | 2.24 m/s, 265° | - | - |
| 1777980008 | 18.33° C | 41% | 1018.7 hPa | 0 mm | 2.68 m/s, 246° | - | - |
| 1777979408 | 18.33° C | 40% | 1018.7 hPa | 0 mm | 2.68 m/s, 224° | - | - |
| 1777978808 | 18.33° C | 39% | 1018.7 hPa | 0 mm | 2.24 m/s, 211° | - | - |
| 1777978208 | 18.33° C | 38% | 1018.8 hPa | 0 mm | 2.68 m/s, 216° | - | - |
| 1777977608 | 18.33° C | 38% | 1018.8 hPa | 0 mm | 2.24 m/s, 196° | - | - |
| 1777977008 | 18.33° C | 38% | 1018.8 hPa | 0 mm | 2.24 m/s, 173° | - | - |
* Rain latest hour (hover to see other rain measurements)
** Current wind speed in m/s (hover to see current wind gust speed)